Time,TemperatureF,DewpointF,PressureIn,WindDirection,WindDirectionDegrees,WindSpeedMPH,WindSpeedGustMPH,Humidity,HourlyPrecipIn,Conditions,Clouds,dailyrainin,SoftwareType,DateUTC
2013-08-27 00:01:00,74.9,52.1,29.90,South,179,0.0,0.0,45,0.00,,,0.00,Wunderground v.1.15,2013-08-27 05:01:00,
2013-08-27 00:06:00,75.0,52.2,29.90,South,179,0.0,0.0,45,0.00,,,0.00,Wunderground v.1.15,2013-08-27 05:06:00,
2013-08-27 00:11:00,74.9,52.1,29.90,South,179,0.0,0.0,45,0.00,,,0.00,Wunderground v.1.15,2013-08-27 05:11:00,
2013-08-27 00:16:00,74.9,51.5,29.90,South,179,0.0,0.0,44,0.00,,,0.00,Wunderground v.1.15,2013-08-27 05:16:00,
2013-08-27 00:21:00,74.9,52.1,29.90,South,179,0.0,0.0,45,0.00,,,0.00,Wunderground v.1.15,2013-08-27 05:21:00,
2013-08-27 00:26:00,74.9,52.1,29.89,South,179,0.0,0.0,45,0.00,,,0.00,Wunderground v.1.15,2013-08-27 05:26:00,
2013-08-27 00:31:00,74.7,52.5,29.89,South,179,0.0,0.0,46,0.00,,,0.00,Wunderground v.1.15,2013-08-27 05:31:00,
2013-08-27 00:36:00,74.4,52.3,29.89,South,179,0.0,0.0,46,0.00,,,0.00,Wunderground v.1.15,2013-08-27 05:36:00,
2013-08-27 00:41:00,74.2,50.9,29.89,South,179,0.0,0.0,44,0.00,,,0.00,Wunderground v.1.15,2013-08-27 05:41:00,
2013-08-27 00:46:00,74.3,51.0,29.89,South,179,0.0,0.0,44,0.00,,,0.00,Wunderground v.1.15,2013-08-27 05:46:00,
2013-08-27 00:51:00,74.5,51.2,29.89,South,179,0.0,0.0,44,0.00,,,0.00,Wunderground v.1.15,2013-08-27 05:51:00,
2013-08-27 00:56:00,74.4,51.1,29.89,South,179,0.0,0.0,44,0.00,,,0.00,Wunderground v.1.15,2013-08-27 05:56:00,
2013-08-27 01:01:00,74.2,50.9,29.89,South,179,0.0,0.0,44,0.00,,,0.00,Wunderground v.1.15,2013-08-27 06:01:00,
2013-08-27 01:06:00,73.8,51.1,29.90,South,179,0.0,0.0,45,0.00,,,0.00,Wunderground v.1.15,2013-08-27 06:06:00,
2013-08-27 01:11:00,73.3,50.7,29.89,South,179,0.0,0.0,45,0.00,,,0.00,Wunderground v.1.15,2013-08-27 06:11:00,
2013-08-27 01:16:00,73.0,51.0,29.89,South,179,0.0,0.0,46,0.00,,,0.00,Wunderground v.1.15,2013-08-27 06:16:00,
2013-08-27 01:21:00,72.9,50.3,29.89,South,179,0.0,0.0,45,0.00,,,0.00,Wunderground v.1.15,2013-08-27 06:21:00,
2013-08-27 01:26:00,72.9,50.3,29.89,South,179,0.0,0.0,45,0.00,,,0.00,Wunderground v.1.15,2013-08-27 06:26:00,
2013-08-27 01:31:00,72.8,50.2,29.88,South,179,0.0,0.0,45,0.00,,,0.00,Wunderground v.1.15,2013-08-27 06:31:00,
2013-08-27 01:36:00,72.6,50.0,29.88,South,179,0.0,0.0,45,0.00,,,0.00,Wunderground v.1.15,2013-08-27 06:36:00,
2013-08-27 01:41:00,72.4,50.4,29.88,South,179,0.0,0.0,46,0.00,,,0.00,Wunderground v.1.15,2013-08-27 06:41:00,
2013-08-27 01:46:00,72.2,50.3,29.88,South,179,0.0,0.0,46,0.00,,,0.00,Wunderground v.1.15,2013-08-27 06:46:00,
2013-08-27 01:51:00,72.0,50.1,29.88,South,179,0.0,0.0,46,0.00,,,0.00,Wunderground v.1.15,2013-08-27 06:51:00,
2013-08-27 01:56:00,71.8,50.5,29.89,South,179,0.0,0.0,47,0.00,,,0.00,Wunderground v.1.15,2013-08-27 06:56:00,
2013-08-27 02:01:00,71.6,50.3,29.88,South,179,0.0,0.0,47,0.00,,,0.00,Wunderground v.1.15,2013-08-27 07:01:00,
2013-08-27 02:06:00,71.6,50.3,29.88,South,179,0.0,0.0,47,0.00,,,0.00,Wunderground v.1.15,2013-08-27 07:06:00,
2013-08-27 02:11:00,71.6,50.3,29.89,South,179,0.0,0.0,47,0.00,,,0.00,Wunderground v.1.15,2013-08-27 07:11:00,
2013-08-27 02:16:00,71.5,50.2,29.89,South,179,0.0,0.0,47,0.00,,,0.00,Wunderground v.1.15,2013-08-27 07:16:00,
2013-08-27 02:21:00,71.5,49.6,29.89,South,179,0.0,0.0,46,0.00,,,0.00,Wunderground v.1.15,2013-08-27 07:21:00,
2013-08-27 02:26:00,71.6,49.7,29.88,South,179,0.0,0.0,46,0.00,,,0.00,Wunderground v.1.15,2013-08-27 07:26:00,
2013-08-27 02:31:00,71.7,49.8,29.88,South,179,0.0,0.0,46,0.00,,,0.00,Wunderground v.1.15,2013-08-27 07:31:00,
2013-08-27 02:36:00,71.8,49.9,29.88,South,179,0.0,0.0,46,0.00,,,0.00,Wunderground v.1.15,2013-08-27 07:36:00,
2013-08-27 02:41:00,71.8,49.9,29.88,South,179,0.0,0.0,46,0.00,,,0.00,Wunderground v.1.15,2013-08-27 07:41:00,
2013-08-27 02:46:00,71.8,49.9,29.88,South,179,0.0,0.0,46,0.00,,,0.00,Wunderground v.1.15,2013-08-27 07:46:00,
2013-08-27 02:51:00,71.7,50.4,29.88,South,179,0.0,0.0,47,0.00,,,0.00,Wunderground v.1.15,2013-08-27 07:51:00,
2013-08-27 02:56:00,71.6,50.3,29.88,South,179,0.0,0.0,47,0.00,,,0.00,Wunderground v.1.15,2013-08-27 07:56:00,
2013-08-27 03:01:00,71.4,50.1,29.88,South,179,0.0,0.0,47,0.00,,,0.00,Wunderground v.1.15,2013-08-27 08:01:00,
2013-08-27 03:06:00,70.9,50.2,29.89,South,179,0.0,0.0,48,0.00,,,0.00,Wunderground v.1.15,2013-08-27 08:06:00,
2013-08-27 03:11:00,70.8,50.1,29.89,South,179,0.0,0.0,48,0.00,,,0.00,Wunderground v.1.15,2013-08-27 08:11:00,
2013-08-27 03:16:00,70.7,50.0,29.89,South,179,0.0,0.0,48,0.00,,,0.00,Wunderground v.1.15,2013-08-27 08:16:00,
2013-08-27 03:21:00,70.5,50.4,29.89,South,179,0.0,0.0,49,0.00,,,0.00,Wunderground v.1.15,2013-08-27 08:21:00,
2013-08-27 03:26:00,70.4,50.9,29.89,South,179,0.0,0.0,50,0.00,,,0.00,Wunderground v.1.15,2013-08-27 08:26:00,
2013-08-27 03:31:00,70.2,51.2,29.89,South,179,0.0,0.0,51,0.00,,,0.00,Wunderground v.1.15,2013-08-27 08:31:00,
2013-08-27 03:36:00,70.0,51.0,29.89,South,179,0.0,0.0,51,0.00,,,0.00,Wunderground v.1.15,2013-08-27 08:36:00,
2013-08-27 03:41:00,69.8,50.9,29.89,South,179,0.0,0.0,51,0.00,,,0.00,Wunderground v.1.15,2013-08-27 08:41:00,
2013-08-27 03:46:00,69.8,51.4,29.89,South,179,0.0,0.0,52,0.00,,,0.00,Wunderground v.1.15,2013-08-27 08:46:00,
2013-08-27 03:51:00,69.7,51.8,29.89,South,179,0.0,0.0,53,0.00,,,0.00,Wunderground v.1.15,2013-08-27 08:51:00,
2013-08-27 03:56:00,69.4,52.0,29.89,South,179,0.0,0.0,54,0.00,,,0.00,Wunderground v.1.15,2013-08-27 08:56:00,
2013-08-27 04:01:00,69.2,52.3,29.89,South,179,0.0,0.0,55,0.00,,,0.00,Wunderground v.1.15,2013-08-27 09:01:00,
2013-08-27 04:06:00,68.9,52.6,29.89,South,179,0.0,0.0,56,0.00,,,0.00,Wunderground v.1.15,2013-08-27 09:06:00,
2013-08-27 04:11:00,68.7,52.8,29.89,South,179,0.0,0.0,57,0.00,,,0.00,Wunderground v.1.15,2013-08-27 09:11:00,
2013-08-27 04:16:00,68.4,53.5,29.89,South,179,0.0,0.0,59,0.00,,,0.00,Wunderground v.1.15,2013-08-27 09:16:00,
2013-08-27 04:21:00,68.2,53.8,29.89,South,179,0.0,0.0,60,0.00,,,0.00,Wunderground v.1.15,2013-08-27 09:21:00,
2013-08-27 04:26:00,67.7,53.3,29.89,South,179,0.0,0.0,60,0.00,,,0.00,Wunderground v.1.15,2013-08-27 09:26:00,
2013-08-27 04:31:00,67.4,53.5,29.89,South,179,0.0,0.0,61,0.00,,,0.00,Wunderground v.1.15,2013-08-27 09:31:00,
2013-08-27 04:36:00,67.1,52.7,29.89,South,179,0.0,0.0,60,0.00,,,0.00,Wunderground v.1.15,2013-08-27 09:36:00,
2013-08-27 04:41:00,66.7,52.4,29.89,South,179,0.0,0.0,60,0.00,,,0.00,Wunderground v.1.15,2013-08-27 09:41:00,
2013-08-27 04:46:00,66.6,51.8,29.89,South,179,0.0,0.0,59,0.00,,,0.00,Wunderground v.1.15,2013-08-27 09:46:00,
2013-08-27 04:51:00,66.6,51.4,29.89,South,179,0.0,0.0,58,0.00,,,0.00,Wunderground v.1.15,2013-08-27 09:51:00,
2013-08-27 04:56:00,66.5,51.3,29.89,South,179,0.0,0.0,58,0.00,,,0.00,Wunderground v.1.15,2013-08-27 09:56:00,
2013-08-27 05:01:00,66.3,51.1,29.89,South,179,0.0,0.0,58,0.00,,,0.00,Wunderground v.1.15,2013-08-27 10:01:00,
2013-08-27 05:06:00,66.1,51.4,29.89,South,179,0.0,0.0,59,0.00,,,0.00,Wunderground v.1.15,2013-08-27 10:06:00,
2013-08-27 05:11:00,66.0,51.3,29.89,South,179,0.0,0.0,59,0.00,,,0.00,Wunderground v.1.15,2013-08-27 10:11:00,
2013-08-27 05:16:00,65.9,51.6,29.89,South,179,0.0,0.0,60,0.00,,,0.00,Wunderground v.1.15,2013-08-27 10:16:00,
2013-08-27 05:21:00,65.7,51.9,29.89,South,179,0.0,0.0,61,0.00,,,0.00,Wunderground v.1.15,2013-08-27 10:21:00,
2013-08-27 05:26:00,65.7,52.3,29.89,South,179,0.0,0.0,62,0.00,,,0.00,Wunderground v.1.15,2013-08-27 10:26:00,
2013-08-27 05:31:00,65.5,51.7,29.89,South,179,0.0,0.0,61,0.00,,,0.00,Wunderground v.1.15,2013-08-27 10:31:00,
2013-08-27 05:36:00,65.3,51.5,29.89,South,179,0.0,0.0,61,0.00,,,0.00,Wunderground v.1.15,2013-08-27 10:36:00,
2013-08-27 05:41:00,65.1,51.8,29.89,South,179,0.0,0.0,62,0.00,,,0.00,Wunderground v.1.15,2013-08-27 10:41:00,
2013-08-27 05:46:00,64.9,51.1,29.89,South,179,0.0,0.0,61,0.00,,,0.00,Wunderground v.1.15,2013-08-27 10:46:00,
2013-08-27 05:51:00,64.7,51.4,29.89,South,179,0.0,0.0,62,0.00,,,0.00,Wunderground v.1.15,2013-08-27 10:51:00,
2013-08-27 05:56:00,64.7,51.4,29.89,South,179,0.0,0.0,62,0.00,,,0.00,Wunderground v.1.15,2013-08-27 10:56:00,
2013-08-27 06:01:00,64.7,51.8,29.89,South,179,0.0,0.0,63,0.00,,,0.00,Wunderground v.1.15,2013-08-27 11:01:00,
2013-08-27 06:06:00,64.6,51.7,29.89,South,179,0.0,0.0,63,0.00,,,0.00,Wunderground v.1.15,2013-08-27 11:06:00,
2013-08-27 06:11:00,64.8,51.9,29.89,South,179,0.0,0.0,63,0.00,,,0.00,Wunderground v.1.15,2013-08-27 11:11:00,
2013-08-27 06:16:00,64.8,51.9,29.90,South,179,0.0,0.0,63,0.00,,,0.00,Wunderground v.1.15,2013-08-27 11:16:00,
2013-08-27 06:21:00,64.5,51.6,29.89,South,179,0.0,0.0,63,0.00,,,0.00,Wunderground v.1.15,2013-08-27 11:21:00,
2013-08-27 06:26:00,64.5,51.6,29.89,South,179,0.0,0.0,63,0.00,,,0.00,Wunderground v.1.15,2013-08-27 11:26:00,
2013-08-27 06:31:00,64.7,51.8,29.89,South,179,0.0,0.0,63,0.00,,,0.00,Wunderground v.1.15,2013-08-27 11:31:00,
2013-08-27 06:36:00,64.7,51.8,29.89,South,179,0.0,0.0,63,0.00,,,0.00,Wunderground v.1.15,2013-08-27 11:36:00,
2013-08-27 06:41:00,64.3,51.9,29.89,South,179,0.0,0.0,64,0.00,,,0.00,Wunderground v.1.15,2013-08-27 11:41:00,
2013-08-27 06:46:00,64.0,51.6,29.89,South,179,0.0,0.0,64,0.00,,,0.00,Wunderground v.1.15,2013-08-27 11:46:00,
2013-08-27 06:51:00,63.9,51.9,29.89,South,179,0.0,0.0,65,0.00,,,0.00,Wunderground v.1.15,2013-08-27 11:51:00,
2013-08-27 06:56:00,63.9,51.9,29.90,South,179,0.0,0.0,65,0.00,,,0.00,Wunderground v.1.15,2013-08-27 11:56:00,
2013-08-27 07:01:00,63.8,52.2,29.90,South,179,0.0,0.0,66,0.00,,,0.00,Wunderground v.1.15,2013-08-27 12:01:00,
2013-08-27 07:06:00,63.8,52.2,29.90,South,179,0.0,0.0,66,0.00,,,0.00,Wunderground v.1.15,2013-08-27 12:06:00,
2013-08-27 07:11:00,63.8,52.2,29.90,South,179,0.0,0.0,66,0.00,,,0.00,Wunderground v.1.15,2013-08-27 12:11:00,
2013-08-27 07:16:00,63.7,52.1,29.90,South,179,0.0,0.0,66,0.00,,,0.00,Wunderground v.1.15,2013-08-27 12:16:00,
2013-08-27 07:20:00,63.9,52.3,29.90,South,179,0.0,0.0,66,0.00,,,0.00,Wunderground v.1.15,2013-08-27 12:20:00,
2013-08-27 07:25:00,63.7,52.1,29.90,South,179,0.0,0.0,66,0.00,,,0.00,Wunderground v.1.15,2013-08-27 12:25:00,
2013-08-27 07:30:00,63.8,52.2,29.90,South,179,0.0,0.0,66,0.00,,,0.00,Wunderground v.1.15,2013-08-27 12:30:00,
2013-08-27 07:35:00,63.7,52.1,29.90,South,179,0.0,0.0,66,0.00,,,0.00,Wunderground v.1.15,2013-08-27 12:35:00,
2013-08-27 07:40:00,63.6,52.0,29.90,South,179,0.0,0.0,66,0.00,,,0.00,Wunderground v.1.15,2013-08-27 12:40:00,
2013-08-27 07:45:00,63.9,52.3,29.90,South,179,0.0,0.0,66,0.00,,,0.00,Wunderground v.1.15,2013-08-27 12:45:00,
2013-08-27 07:50:00,63.8,52.2,29.91,South,179,0.0,0.0,66,0.00,,,0.00,Wunderground v.1.15,2013-08-27 12:50:00,
2013-08-27 07:55:00,63.8,52.2,29.91,South,179,0.0,0.0,66,0.00,,,0.00,Wunderground v.1.15,2013-08-27 12:55:00,
2013-08-27 08:00:00,63.9,52.3,29.91,South,179,0.0,0.0,66,0.00,,,0.00,Wunderground v.1.15,2013-08-27 13:00:00,
2013-08-27 08:05:00,64.1,52.5,29.91,South,179,0.0,0.0,66,0.00,,,0.00,Wunderground v.1.15,2013-08-27 13:05:00,
2013-08-27 08:10:00,64.6,52.6,29.91,South,179,0.0,0.0,65,0.00,,,0.00,Wunderground v.1.15,2013-08-27 13:10:00,
2013-08-27 08:15:00,65.0,52.5,29.91,South,179,0.0,0.0,64,0.00,,,0.00,Wunderground v.1.15,2013-08-27 13:15:00,
2013-08-27 08:20:00,65.4,52.5,29.91,South,179,0.0,0.0,63,0.00,,,0.00,Wunderground v.1.15,2013-08-27 13:20:00,
2013-08-27 08:25:00,65.8,52.9,29.91,SSW,197,0.0,0.0,63,0.00,,,0.00,Wunderground v.1.15,2013-08-27 13:25:00,
2013-08-27 08:30:00,66.1,52.7,29.92,WSW,254,0.0,0.0,62,0.00,,,0.00,Wunderground v.1.15,2013-08-27 13:30:00,
2013-08-27 08:35:00,66.5,53.1,29.92,WSW,254,0.0,0.0,62,0.00,,,0.00,Wunderground v.1.15,2013-08-27 13:35:00,
2013-08-27 08:40:00,66.9,53.0,29.92,WSW,254,0.0,0.0,61,0.00,,,0.00,Wunderground v.1.15,2013-08-27 13:40:00,
2013-08-27 08:45:00,67.5,53.1,29.92,WSW,254,0.0,0.0,60,0.00,,,0.00,Wunderground v.1.15,2013-08-27 13:45:00,
2013-08-27 08:50:00,68.1,53.2,29.92,WSW,254,0.0,0.0,59,0.00,,,0.00,Wunderground v.1.15,2013-08-27 13:50:00,
2013-08-27 08:55:00,68.6,53.2,29.92,West,271,0.0,0.0,58,0.00,,,0.00,Wunderground v.1.15,2013-08-27 13:55:00,
2013-08-27 09:00:00,68.9,53.5,29.92,WNW,282,0.0,0.0,58,0.00,,,0.00,Wunderground v.1.15,2013-08-27 14:00:00,
2013-08-27 09:05:00,69.4,53.0,29.92,North,355,5.0,6.0,56,0.00,,,0.00,Wunderground v.1.15,2013-08-27 14:05:00,
2013-08-27 09:10:00,69.7,54.3,29.92,North,355,2.0,3.0,58,0.00,,,0.00,Wunderground v.1.15,2013-08-27 14:10:00,
2013-08-27 09:15:00,69.9,54.0,29.92,North,355,0.0,4.0,57,0.00,,,0.00,Wunderground v.1.15,2013-08-27 14:15:00,
2013-08-27 09:20:00,70.1,54.2,29.92,North,355,0.0,1.0,57,0.00,,,0.00,Wunderground v.1.15,2013-08-27 14:20:00,
2013-08-27 09:25:00,70.3,53.9,29.92,North,355,3.0,6.0,56,0.00,,,0.00,Wunderground v.1.15,2013-08-27 14:25:00,
2013-08-27 09:30:00,70.8,53.8,29.92,North,355,2.0,7.0,55,0.00,,,0.00,Wunderground v.1.15,2013-08-27 14:30:00,
2013-08-27 09:35:00,71.0,53.5,29.92,North,360,5.0,8.0,54,0.00,,,0.00,Wunderground v.1.15,2013-08-27 14:35:00,
2013-08-27 09:40:00,71.2,53.7,29.92,North,5,3.0,6.0,54,0.00,,,0.00,Wunderground v.1.15,2013-08-27 14:40:00,
2013-08-27 09:45:00,71.4,53.4,29.92,North,355,6.0,9.0,53,0.00,,,0.00,Wunderground v.1.15,2013-08-27 14:45:00,
2013-08-27 09:50:00,71.3,53.3,29.92,North,355,5.0,7.0,53,0.00,,,0.00,Wunderground v.1.15,2013-08-27 14:50:00,
2013-08-27 09:55:00,71.6,53.6,29.92,NNE,12,0.0,7.0,53,0.00,,,0.00,Wunderground v.1.15,2013-08-27 14:55:00,
2013-08-27 10:00:00,72.3,53.7,29.92,NNE,12,5.0,6.0,52,0.00,,,0.00,Wunderground v.1.15,2013-08-27 15:00:00,
2013-08-27 10:05:00,72.4,53.8,29.92,NNE,12,5.0,6.0,52,0.00,,,0.00,Wunderground v.1.15,2013-08-27 15:05:00,
2013-08-27 10:10:00,72.8,53.6,29.92,NNE,12,0.0,3.0,51,0.00,,,0.00,Wunderground v.1.15,2013-08-27 15:10:00,
2013-08-27 10:15:00,73.1,53.9,29.92,NNE,12,3.0,7.0,51,0.00,,,0.00,Wunderground v.1.15,2013-08-27 15:15:00,
2013-08-27 10:20:00,73.2,54.5,29.92,NNE,13,0.0,1.0,52,0.00,,,0.00,Wunderground v.1.15,2013-08-27 15:20:00,
2013-08-27 10:25:00,73.1,54.4,29.92,NNE,13,2.0,5.0,52,0.00,,,0.00,Wunderground v.1.15,2013-08-27 15:25:00,
2013-08-27 10:30:00,73.2,54.5,29.92,NNE,13,0.0,1.0,52,0.00,,,0.00,Wunderground v.1.15,2013-08-27 15:30:00,
2013-08-27 10:35:00,73.7,54.4,29.92,NNE,14,0.0,5.0,51,0.00,,,0.00,Wunderground v.1.15,2013-08-27 15:35:00,
2013-08-27 10:40:00,74.0,54.2,29.92,NNE,15,0.0,2.0,50,0.00,,,0.00,Wunderground v.1.15,2013-08-27 15:40:00,
2013-08-27 10:45:00,74.3,53.9,29.92,NNE,15,0.0,4.0,49,0.00,,,0.00,Wunderground v.1.15,2013-08-27 15:45:00,
2013-08-27 10:50:00,74.8,54.4,29.92,NNE,15,0.0,1.0,49,0.00,,,0.00,Wunderground v.1.15,2013-08-27 15:50:00,
2013-08-27 10:55:00,75.5,54.4,29.92,NNE,15,0.0,1.0,48,0.00,,,0.00,Wunderground v.1.15,2013-08-27 15:55:00,
2013-08-27 11:00:00,76.4,54.7,29.92,NNE,15,0.0,0.0,47,0.00,,,0.00,Wunderground v.1.15,2013-08-27 16:00:00,
2013-08-27 11:05:00,77.1,54.1,29.92,NNE,15,0.0,0.0,45,0.00,,,0.00,Wunderground v.1.15,2013-08-27 16:05:00,
2013-08-27 11:10:00,78.0,55.5,29.92,NNE,16,1.0,2.0,46,0.00,,,0.00,Wunderground v.1.15,2013-08-27 16:10:00,
2013-08-27 11:15:00,79.0,54.6,29.92,NE,36,0.0,4.0,43,0.00,,,0.00,Wunderground v.1.15,2013-08-27 16:15:00,
2013-08-27 11:20:00,79.0,53.9,29.92,SE,134,0.0,7.0,42,0.00,,,0.00,Wunderground v.1.15,2013-08-27 16:20:00,
2013-08-27 11:25:00,78.9,54.5,29.92,ESE,121,0.0,7.0,43,0.00,,,0.00,Wunderground v.1.15,2013-08-27 16:25:00,
2013-08-27 11:30:00,78.8,54.4,29.92,SSE,149,4.0,8.0,43,0.00,,,0.00,Wunderground v.1.15,2013-08-27 16:30:00,
2013-08-27 11:35:00,78.8,54.4,29.92,SE,142,2.0,8.0,43,0.00,,,0.00,Wunderground v.1.15,2013-08-27 16:35:00,
2013-08-27 11:40:00,79.3,54.2,29.91,SE,130,0.0,2.0,42,0.00,,,0.00,Wunderground v.1.15,2013-08-27 16:40:00,
2013-08-27 11:45:00,79.8,54.0,29.91,SSE,153,5.0,13.0,41,0.00,,,0.00,Wunderground v.1.15,2013-08-27 16:45:00,
2013-08-27 11:50:00,79.8,54.0,29.91,SSE,149,0.0,4.0,41,0.00,,,0.00,Wunderground v.1.15,2013-08-27 16:50:00,
2013-08-27 11:55:00,79.5,53.7,29.91,SE,132,1.0,12.0,41,0.00,,,0.00,Wunderground v.1.15,2013-08-27 16:55:00,
2013-08-27 12:00:00,79.8,54.7,29.91,SE,134,0.0,7.0,42,0.00,,,0.00,Wunderground v.1.15,2013-08-27 17:00:00,
2013-08-27 12:05:00,80.4,53.9,29.91,ESE,119,0.0,9.0,40,0.00,,,0.00,Wunderground v.1.15,2013-08-27 17:05:00,
2013-08-27 12:10:00,80.3,53.8,29.91,SE,126,2.0,4.0,40,0.00,,,0.00,Wunderground v.1.15,2013-08-27 17:10:00,
2013-08-27 12:15:00,80.4,53.9,29.90,SE,124,0.0,9.0,40,0.00,,,0.00,Wunderground v.1.15,2013-08-27 17:15:00,
2013-08-27 12:20:00,80.3,53.1,29.90,ESE,117,2.0,2.0,39,0.00,,,0.00,Wunderground v.1.15,2013-08-27 17:20:00,
2013-08-27 12:25:00,80.6,54.0,29.90,ESE,107,0.0,5.0,40,0.00,,,0.00,Wunderground v.1.15,2013-08-27 17:25:00,
2013-08-27 12:30:00,81.4,54.1,29.90,ESE,121,2.0,4.0,39,0.00,,,0.00,Wunderground v.1.15,2013-08-27 17:30:00,
2013-08-27 12:35:00,81.9,53.8,29.90,SE,139,0.0,8.0,38,0.00,,,0.00,Wunderground v.1.15,2013-08-27 17:35:00,
2013-08-27 12:40:00,82.3,53.4,29.90,SE,126,0.0,2.0,37,0.00,,,0.00,Wunderground v.1.15,2013-08-27 17:40:00,
2013-08-27 12:45:00,82.3,54.2,29.89,ESE,114,0.0,6.0,38,0.00,,,0.00,Wunderground v.1.15,2013-08-27 17:45:00,
2013-08-27 12:50:00,83.0,53.3,29.89,SE,127,1.0,5.0,36,0.00,,,0.00,Wunderground v.1.15,2013-08-27 17:50:00,
2013-08-27 12:55:00,83.3,53.6,29.89,SE,131,2.0,7.0,36,0.00,,,0.00,Wunderground v.1.15,2013-08-27 17:55:00,
2013-08-27 13:00:00,83.8,54.0,29.88,SE,128,2.0,2.0,36,0.00,,,0.00,Wunderground v.1.15,2013-08-27 18:00:00,
2013-08-27 13:05:00,85.1,54.4,29.88,ESE,109,0.0,5.0,35,0.00,,,0.00,Wunderground v.1.15,2013-08-27 18:05:00,
2013-08-27 13:10:00,85.7,53.3,29.88,South,186,1.0,2.0,33,0.00,,,0.00,Wunderground v.1.15,2013-08-27 18:10:00,
2013-08-27 13:15:00,84.9,53.4,29.88,SSE,150,4.0,11.0,34,0.00,,,0.00,Wunderground v.1.15,2013-08-27 18:15:00,
2013-08-27 13:20:00,84.6,53.9,29.87,ESE,110,2.0,3.0,35,0.00,,,0.00,Wunderground v.1.15,2013-08-27 18:20:00,
2013-08-27 13:25:00,84.7,53.2,29.87,ESE,118,0.0,4.0,34,0.00,,,0.00,Wunderground v.1.15,2013-08-27 18:25:00,
2013-08-27 13:30:00,84.6,53.1,29.87,ESE,117,0.0,0.0,34,0.00,,,0.00,Wunderground v.1.15,2013-08-27 18:30:00,
2013-08-27 13:35:00,85.7,54.1,29.87,SSE,167,8.0,12.0,34,0.00,,,0.00,Wunderground v.1.15,2013-08-27 18:35:00,
2013-08-27 13:40:00,86.4,53.1,29.86,South,184,0.0,3.0,32,0.00,,,0.00,Wunderground v.1.15,2013-08-27 18:40:00,
2013-08-27 13:45:00,86.9,54.3,29.86,South,180,0.0,4.0,33,0.00,,,0.00,Wunderground v.1.15,2013-08-27 18:45:00,
2013-08-27 13:50:00,87.1,53.7,29.86,SSE,151,6.0,6.0,32,0.00,,,0.00,Wunderground v.1.15,2013-08-27 18:50:00,
2013-08-27 13:55:00,87.0,53.6,29.86,SSE,157,0.0,8.0,32,0.00,,,0.00,Wunderground v.1.15,2013-08-27 18:55:00,
2013-08-27 14:00:00,87.0,53.6,29.86,SSE,148,4.0,6.0,32,0.00,,,0.00,Wunderground v.1.15,2013-08-27 19:00:00,
2013-08-27 14:05:00,87.0,53.6,29.85,South,188,0.0,7.0,32,0.00,,,0.00,Wunderground v.1.15,2013-08-27 19:05:00,
2013-08-27 14:10:00,87.1,53.7,29.85,SE,144,5.0,6.0,32,0.00,,,0.00,Wunderground v.1.15,2013-08-27 19:10:00,
2013-08-27 14:15:00,86.9,53.5,29.85,SE,140,5.0,7.0,32,0.00,,,0.00,Wunderground v.1.15,2013-08-27 19:15:00,
2013-08-27 14:20:00,86.8,53.4,29.85,SE,131,6.0,7.0,32,0.00,,,0.00,Wunderground v.1.15,2013-08-27 19:20:00,
2013-08-27 14:25:00,86.6,53.2,29.85,SE,127,4.0,12.0,32,0.00,,,0.00,Wunderground v.1.15,2013-08-27 19:25:00,
2013-08-27 14:30:00,86.4,53.1,29.84,SE,130,0.0,2.0,32,0.00,,,0.00,Wunderground v.1.15,2013-08-27 19:30:00,
2013-08-27 14:35:00,87.4,53.9,29.84,ESE,120,1.0,12.0,32,0.00,,,0.00,Wunderground v.1.15,2013-08-27 19:35:00,
2013-08-27 14:40:00,87.9,52.6,29.84,SE,144,0.0,2.0,30,0.00,,,0.00,Wunderground v.1.15,2013-08-27 19:40:00,
2013-08-27 14:45:00,87.8,53.4,29.84,East,94,4.0,5.0,31,0.00,,,0.00,Wunderground v.1.15,2013-08-27 19:45:00,
2013-08-27 14:50:00,87.7,53.3,29.84,SE,127,1.0,1.0,31,0.00,,,0.00,Wunderground v.1.15,2013-08-27 19:50:00,
2013-08-27 14:55:00,87.9,52.6,29.84,SE,127,0.0,6.0,30,0.00,,,0.00,Wunderground v.1.15,2013-08-27 19:55:00,
2013-08-27 15:00:00,88.1,51.8,29.83,SE,127,0.0,6.0,29,0.00,,,0.00,Wunderground v.1.15,2013-08-27 20:00:00,
2013-08-27 15:05:00,88.9,51.6,29.83,ESE,123,0.0,9.0,28,0.00,,,0.00,Wunderground v.1.15,2013-08-27 20:05:00,
2013-08-27 15:10:00,88.7,52.4,29.83,SSE,155,0.0,9.0,29,0.00,,,0.00,Wunderground v.1.15,2013-08-27 20:10:00,
2013-08-27 15:15:00,89.2,51.8,29.83,South,171,4.0,11.0,28,0.00,,,0.00,Wunderground v.1.15,2013-08-27 20:15:00,
2013-08-27 15:20:00,89.3,51.9,29.83,SSE,155,0.0,11.0,28,0.00,,,0.00,Wunderground v.1.15,2013-08-27 20:20:00,
2013-08-27 15:25:00,89.3,51.9,29.82,ESE,113,0.0,6.0,28,0.00,,,0.00,Wunderground v.1.15,2013-08-27 20:25:00,
2013-08-27 15:30:00,89.9,52.4,29.82,SSE,158,0.0,9.0,28,0.00,,,0.00,Wunderground v.1.15,2013-08-27 20:30:00,
2013-08-27 15:35:00,90.5,52.0,29.82,SSE,161,0.0,2.0,27,0.00,,,0.00,Wunderground v.1.15,2013-08-27 20:35:00,
2013-08-27 15:40:00,90.8,52.2,29.81,ESE,112,1.0,7.0,27,0.00,,,0.00,Wunderground v.1.15,2013-08-27 20:40:00,
2013-08-27 15:45:00,89.9,52.4,29.81,NE,51,0.0,8.0,28,0.00,,,0.00,Wunderground v.1.15,2013-08-27 20:45:00,
2013-08-27 15:50:00,88.9,52.5,29.81,East,93,1.0,8.0,29,0.00,,,0.00,Wunderground v.1.15,2013-08-27 20:50:00,
2013-08-27 15:55:00,89.0,51.7,29.81,SE,127,2.0,12.0,28,0.00,,,0.00,Wunderground v.1.15,2013-08-27 20:55:00,
2013-08-27 16:00:00,89.6,52.2,29.81,SSE,150,9.0,12.0,28,0.00,,,0.00,Wunderground v.1.15,2013-08-27 21:00:00,
2013-08-27 16:05:00,90.1,52.6,29.81,South,170,0.0,8.0,28,0.00,,,0.00,Wunderground v.1.15,2013-08-27 21:05:00,
2013-08-27 16:10:00,90.7,52.1,29.81,SE,127,8.0,13.0,27,0.00,,,0.00,Wunderground v.1.15,2013-08-27 21:10:00,
2013-08-27 16:15:00,90.2,52.7,29.80,SE,144,7.0,13.0,28,0.00,,,0.00,Wunderground v.1.15,2013-08-27 21:15:00,
2013-08-27 16:20:00,90.0,52.5,29.80,SE,142,4.0,15.0,28,0.00,,,0.00,Wunderground v.1.15,2013-08-27 21:20:00,
2013-08-27 16:25:00,89.4,51.0,29.80,SE,130,2.0,11.0,27,0.00,,,0.00,Wunderground v.1.15,2013-08-27 21:25:00,
2013-08-27 16:29:00,88.7,51.4,29.80,South,169,1.0,11.0,28,0.00,,,0.00,Wunderground v.1.15,2013-08-27 21:29:00,
2013-08-27 16:34:00,87.9,50.7,29.79,South,175,0.0,3.0,28,0.00,,,0.00,Wunderground v.1.15,2013-08-27 21:34:00,
2013-08-27 16:39:00,88.2,51.9,29.79,SSE,161,1.0,5.0,29,0.00,,,0.00,Wunderground v.1.15,2013-08-27 21:39:00,
2013-08-27 16:44:00,89.5,51.1,29.79,South,170,6.0,10.0,27,0.00,,,0.00,Wunderground v.1.15,2013-08-27 21:44:00,
2013-08-27 16:49:00,89.2,50.8,29.79,SE,136,0.0,13.0,27,0.00,,,0.00,Wunderground v.1.15,2013-08-27 21:49:00,
2013-08-27 16:54:00,89.3,51.9,29.79,SSE,156,0.0,12.0,28,0.00,,,0.00,Wunderground v.1.15,2013-08-27 21:54:00,
2013-08-27 16:59:00,89.3,50.9,29.78,SE,126,2.0,13.0,27,0.00,,,0.00,Wunderground v.1.15,2013-08-27 21:59:00,
2013-08-27 17:04:00,88.7,51.4,29.78,SE,128,0.0,7.0,28,0.00,,,0.00,Wunderground v.1.15,2013-08-27 22:04:00,
2013-08-27 17:09:00,88.9,51.6,29.78,ENE,65,0.0,7.0,28,0.00,,,0.00,Wunderground v.1.15,2013-08-27 22:09:00,
2013-08-27 17:14:00,89.5,51.1,29.78,SSE,154,9.0,11.0,27,0.00,,,0.00,Wunderground v.1.15,2013-08-27 22:14:00,
2013-08-27 17:19:00,89.8,52.3,29.78,SSE,166,7.0,11.0,28,0.00,,,0.00,Wunderground v.1.15,2013-08-27 22:19:00,
2013-08-27 17:24:00,89.4,51.0,29.78,SE,134,0.0,12.0,27,0.00,,,0.00,Wunderground v.1.15,2013-08-27 22:24:00,
2013-08-27 17:29:00,89.3,51.9,29.78,SE,139,1.0,14.0,28,0.00,,,0.00,Wunderground v.1.15,2013-08-27 22:29:00,
2013-08-27 17:34:00,89.3,50.9,29.78,SSE,167,0.0,13.0,27,0.00,,,0.00,Wunderground v.1.15,2013-08-27 22:34:00,
2013-08-27 17:39:00,89.1,50.8,29.78,SSE,158,2.0,13.0,27,0.00,,,0.00,Wunderground v.1.15,2013-08-27 22:39:00,
2013-08-27 17:44:00,89.1,50.8,29.77,SSW,196,0.0,11.0,27,0.00,,,0.00,Wunderground v.1.15,2013-08-27 22:44:00,
2013-08-27 17:49:00,89.3,50.9,29.77,SSE,166,8.0,12.0,27,0.00,,,0.00,Wunderground v.1.15,2013-08-27 22:49:00,
2013-08-27 17:54:00,88.9,51.6,29.77,SSE,155,5.0,12.0,28,0.00,,,0.00,Wunderground v.1.15,2013-08-27 22:54:00,
2013-08-27 17:59:00,88.6,51.3,29.77,SSE,154,1.0,13.0,28,0.00,,,0.00,Wunderground v.1.15,2013-08-27 22:59:00,
2013-08-27 18:04:00,88.6,51.3,29.77,South,171,0.0,7.0,28,0.00,,,0.00,Wunderground v.1.15,2013-08-27 23:04:00,
2013-08-27 18:09:00,88.9,50.6,29.76,SSE,157,2.0,10.0,27,0.00,,,0.00,Wunderground v.1.15,2013-08-27 23:09:00,
2013-08-27 18:14:00,89.1,51.7,29.76,South,174,9.0,9.0,28,0.00,,,0.00,Wunderground v.1.15,2013-08-27 23:14:00,
2013-08-27 18:19:00,89.4,51.0,29.76,SE,135,7.0,12.0,27,0.00,,,0.00,Wunderground v.1.15,2013-08-27 23:19:00,
2013-08-27 18:24:00,89.3,50.9,29.76,SSE,147,6.0,11.0,27,0.00,,,0.00,Wunderground v.1.15,2013-08-27 23:24:00,
2013-08-27 18:29:00,89.2,49.8,29.76,SSE,162,0.0,11.0,26,0.00,,,0.00,Wunderground v.1.15,2013-08-27 23:29:00,
2013-08-27 18:34:00,89.3,49.9,29.76,SSE,153,7.0,12.0,26,0.00,,,0.00,Wunderground v.1.15,2013-08-27 23:34:00,
2013-08-27 18:39:00,89.5,50.1,29.76,SSE,155,0.0,12.0,26,0.00,,,0.00,Wunderground v.1.15,2013-08-27 23:39:00,
2013-08-27 18:44:00,89.3,49.9,29.76,SSE,148,6.0,9.0,26,0.00,,,0.00,Wunderground v.1.15,2013-08-27 23:44:00,
2013-08-27 18:49:00,89.0,50.7,29.76,SSE,155,6.0,13.0,27,0.00,,,0.00,Wunderground v.1.15,2013-08-27 23:49:00,
2013-08-27 18:54:00,88.8,50.5,29.75,SE,134,0.0,8.0,27,0.00,,,0.00,Wunderground v.1.15,2013-08-27 23:54:00,
2013-08-27 18:59:00,88.9,49.6,29.75,SSE,153,0.0,8.0,26,0.00,,,0.00,Wunderground v.1.15,2013-08-27 23:59:00,
2013-08-27 19:04:00,89.1,49.7,29.75,SSE,153,0.0,2.0,26,0.00,,,0.00,Wunderground v.1.15,2013-08-28 00:04:00,
2013-08-27 19:09:00,88.9,49.6,29.75,SE,144,1.0,11.0,26,0.00,,,0.00,Wunderground v.1.15,2013-08-28 00:09:00,
2013-08-27 19:14:00,88.3,49.1,29.75,SSE,148,2.0,12.0,26,0.00,,,0.00,Wunderground v.1.15,2013-08-28 00:14:00,
2013-08-27 19:19:00,88.2,49.0,29.75,SE,132,7.0,12.0,26,0.00,,,0.00,Wunderground v.1.15,2013-08-28 00:19:00,
2013-08-27 19:24:00,87.9,49.7,29.75,SE,146,6.0,9.0,27,0.00,,,0.00,Wunderground v.1.15,2013-08-28 00:24:00,
2013-08-27 19:29:00,87.5,49.4,29.75,SE,146,2.0,12.0,27,0.00,,,0.00,Wunderground v.1.15,2013-08-28 00:29:00,
2013-08-27 19:34:00,87.3,48.2,29.75,SE,131,2.0,11.0,26,0.00,,,0.00,Wunderground v.1.15,2013-08-28 00:34:00,
2013-08-27 19:39:00,87.1,49.1,29.75,SE,143,8.0,12.0,27,0.00,,,0.00,Wunderground v.1.15,2013-08-28 00:39:00,
2013-08-27 19:44:00,86.9,47.9,29.75,SSE,150,0.0,9.0,26,0.00,,,0.00,Wunderground v.1.15,2013-08-28 00:44:00,
2013-08-27 19:49:00,86.8,48.8,29.75,SE,138,1.0,9.0,27,0.00,,,0.00,Wunderground v.1.15,2013-08-28 00:49:00,
2013-08-27 19:54:00,86.8,47.8,29.75,SE,146,2.0,6.0,26,0.00,,,0.00,Wunderground v.1.15,2013-08-28 00:54:00,
2013-08-27 19:59:00,86.8,48.8,29.75,SE,146,0.0,6.0,27,0.00,,,0.00,Wunderground v.1.15,2013-08-28 00:59:00,
2013-08-27 20:04:00,86.7,48.7,29.75,SSE,147,1.0,4.0,27,0.00,,,0.00,Wunderground v.1.15,2013-08-28 01:04:00,
2013-08-27 20:09:00,86.5,48.5,29.75,SE,145,2.0,9.0,27,0.00,,,0.00,Wunderground v.1.15,2013-08-28 01:09:00,
2013-08-27 20:14:00,86.2,48.3,29.75,SE,142,2.0,7.0,27,0.00,,,0.00,Wunderground v.1.15,2013-08-28 01:14:00,
2013-08-27 20:19:00,85.8,48.9,29.75,SE,138,0.0,8.0,28,0.00,,,0.00,Wunderground v.1.15,2013-08-28 01:19:00,
2013-08-27 20:24:00,85.4,49.5,29.75,SE,136,4.0,5.0,29,0.00,,,0.00,Wunderground v.1.15,2013-08-28 01:24:00,
2013-08-27 20:29:00,85.0,50.1,29.75,SE,136,0.0,5.0,30,0.00,,,0.00,Wunderground v.1.15,2013-08-28 01:29:00,
2013-08-27 20:34:00,84.5,49.7,29.75,SE,136,0.0,1.0,30,0.00,,,0.00,Wunderground v.1.15,2013-08-28 01:34:00,
2013-08-27 20:39:00,84.1,49.3,29.75,SE,136,4.0,4.0,30,0.00,,,0.00,Wunderground v.1.15,2013-08-28 01:39:00,
2013-08-27 20:44:00,83.7,49.9,29.75,SE,136,0.0,5.0,31,0.00,,,0.00,Wunderground v.1.15,2013-08-28 01:44:00,
2013-08-27 20:49:00,83.3,49.5,29.76,SE,135,2.0,8.0,31,0.00,,,0.00,Wunderground v.1.15,2013-08-28 01:49:00,
2013-08-27 20:54:00,83.0,50.1,29.76,SE,135,1.0,6.0,32,0.00,,,0.00,Wunderground v.1.15,2013-08-28 01:54:00,
2013-08-27 20:59:00,82.8,49.9,29.76,SE,134,0.0,6.0,32,0.00,,,0.00,Wunderground v.1.15,2013-08-28 01:59:00,
2013-08-27 21:04:00,82.5,50.5,29.76,SE,134,0.0,2.0,33,0.00,,,0.00,Wunderground v.1.15,2013-08-28 02:04:00,
2013-08-27 21:09:00,82.2,50.2,29.77,SE,134,0.0,2.0,33,0.00,,,0.00,Wunderground v.1.15,2013-08-28 02:09:00,
2013-08-27 21:14:00,81.9,50.8,29.76,SE,134,0.0,0.0,34,0.00,,,0.00,Wunderground v.1.15,2013-08-28 02:14:00,
2013-08-27 21:19:00,81.5,50.4,29.77,SE,134,0.0,0.0,34,0.00,,,0.00,Wunderground v.1.15,2013-08-28 02:19:00,
2013-08-27 21:24:00,81.2,50.9,29.77,SE,134,0.0,0.0,35,0.00,,,0.00,Wunderground v.1.15,2013-08-28 02:24:00,
2013-08-27 21:29:00,81.0,50.8,29.77,SE,134,0.0,0.0,35,0.00,,,0.00,Wunderground v.1.15,2013-08-28 02:29:00,
2013-08-27 21:34:00,80.8,50.6,29.78,SE,134,0.0,0.0,35,0.00,,,0.00,Wunderground v.1.15,2013-08-28 02:34:00,
2013-08-27 21:39:00,80.5,50.3,29.78,SE,134,0.0,0.0,35,0.00,,,0.00,Wunderground v.1.15,2013-08-28 02:39:00,
2013-08-27 21:44:00,80.2,50.1,29.78,SE,138,4.0,8.0,35,0.00,,,0.00,Wunderground v.1.15,2013-08-28 02:44:00,
2013-08-27 21:49:00,80.1,50.0,29.78,SE,142,5.0,8.0,35,0.00,,,0.00,Wunderground v.1.15,2013-08-28 02:49:00,
2013-08-27 21:54:00,79.8,49.7,29.79,SE,142,4.0,6.0,35,0.00,,,0.00,Wunderground v.1.15,2013-08-28 02:54:00,
2013-08-27 21:59:00,79.7,49.6,29.79,SSE,150,6.0,10.0,35,0.00,,,0.00,Wunderground v.1.15,2013-08-28 02:59:00,
2013-08-27 22:04:00,79.5,50.2,29.79,SSE,154,7.0,9.0,36,0.00,,,0.00,Wunderground v.1.15,2013-08-28 03:04:00,
2013-08-27 22:09:00,79.3,50.0,29.80,SSE,154,5.0,10.0,36,0.00,,,0.00,Wunderground v.1.15,2013-08-28 03:09:00,
2013-08-27 22:19:00,78.8,50.3,29.80,SSE,155,5.0,5.0,37,0.00,,,0.00,Wunderground v.1.15,2013-08-28 03:19:00,
2013-08-27 22:24:00,78.6,50.1,29.80,SSE,155,1.0,10.0,37,0.00,,,0.00,Wunderground v.1.15,2013-08-28 03:24:00,
2013-08-27 22:29:00,78.4,50.7,29.80,SSE,154,0.0,4.0,38,0.00,,,0.00,Wunderground v.1.15,2013-08-28 03:29:00,
2013-08-27 22:34:00,78.1,50.4,29.81,SSE,155,0.0,7.0,38,0.00,,,0.00,Wunderground v.1.15,2013-08-28 03:34:00,
2013-08-27 22:39:00,77.8,50.9,29.81,SSE,155,6.0,6.0,39,0.00,,,0.00,Wunderground v.1.15,2013-08-28 03:39:00,
2013-08-27 22:44:00,77.6,50.7,29.81,SSE,155,4.0,6.0,39,0.00,,,0.00,Wunderground v.1.15,2013-08-28 03:44:00,
2013-08-27 22:49:00,77.4,50.5,29.81,SSE,155,0.0,2.0,39,0.00,,,0.00,Wunderground v.1.15,2013-08-28 03:49:00,
2013-08-27 22:54:00,77.2,51.0,29.82,SSE,155,1.0,6.0,40,0.00,,,0.00,Wunderground v.1.15,2013-08-28 03:54:00,
2013-08-27 22:59:00,76.9,50.7,29.82,SSE,155,0.0,6.0,40,0.00,,,0.00,Wunderground v.1.15,2013-08-28 03:59:00,
2013-08-27 23:01:00,76.9,50.7,29.82,SSE,154,6.0,6.0,40,0.00,,,0.00,Wunderground v.1.15,2013-08-28 04:01:00,
2013-08-27 23:06:00,76.7,50.6,29.82,SE,143,4.0,7.0,40,0.00,,,0.00,Wunderground v.1.15,2013-08-28 04:06:00,
2013-08-27 23:11:00,76.5,50.4,29.82,SSE,148,5.0,6.0,40,0.00,,,0.00,Wunderground v.1.15,2013-08-28 04:11:00,
2013-08-27 23:14:00,76.3,50.2,29.82,SSE,148,2.0,6.0,40,0.00,,,0.00,Wunderground v.1.15,2013-08-28 04:14:00,
2013-08-27 23:19:00,76.1,50.7,29.82,SSE,148,0.0,6.0,41,0.00,,,0.00,Wunderground v.1.15,2013-08-28 04:19:00,
2013-08-27 23:24:00,75.8,50.4,29.82,SSE,148,0.0,6.0,41,0.00,,,0.00,Wunderground v.1.15,2013-08-28 04:24:00,
2013-08-27 23:29:00,75.5,50.8,29.82,SSE,148,0.0,6.0,42,0.00,,,0.00,Wunderground v.1.15,2013-08-28 04:29:00,
2013-08-27 23:34:00,75.1,50.4,29.82,SSE,148,0.0,0.0,42,0.00,,,0.00,Wunderground v.1.15,2013-08-28 04:34:00,
2013-08-27 23:39:00,74.9,50.3,29.83,SSE,148,0.0,0.0,42,0.00,,,0.00,Wunderground v.1.15,2013-08-28 04:39:00,
2013-08-27 23:45:00,74.7,50.1,29.83,SSE,148,0.0,0.0,42,0.00,,,0.00,Wunderground v.1.15,2013-08-28 04:45:00,
2013-08-27 23:50:00,74.5,49.2,29.83,SSE,148,2.0,4.0,41,0.00,,,0.00,Wunderground v.1.15,2013-08-28 04:50:00,
2013-08-27 23:55:00,74.4,49.2,29.83,SSE,148,2.0,4.0,41,0.00,,,0.00,Wunderground v.1.15,2013-08-28 04:55:00,